TOURFACTS.DK  
Stats and Facts from Tour de France.

Tour de France 2017 starts in 38 days
  Riders   Stages   Teams   Summits   Yearly  


 
Search by year

 After:  2016 - Stage 21:   14626 starters.
  5086 different riders.
  632 teams.
  2211 stages.
  454 restdays.
  436049.60 km.
  5622 abandonnees.


Top 3
Christopher Froome89:04:48
Romain Bardet89:08:53
Nairo Quintana89:09:09
Rafal Majka209 pt.
Thomas De Gendt130 pt.
Jarlinson Pantano ..121 pt.
Peter Sagan470 pt.
Marcel Kittel228 pt.
Michael Matthews199 pt.
Adam Yates89:09:30
Louis Meintjes89:11:46
Emanuel Buchmann89:52:28
Facts from Tour de France 1938
  |   Stages.  |   Stage winners.  |   Days in yellow  |   Average speed.  |   Route.  |   Teams.  |   All riders.  |   Rookies.  |   Withdrawls.  |  

  |   GC.  |   Polka  |   Green  |   White  |   Summits. (In tour)  |   Summits. (Points)  |   Miscellaneous.  |  

Stage 12 on 18 - 07 - 1938
         Owning:    Félicien Vervaecke    
Pick a stage:  1 2 3 4a 4b 4c 5 6a 6b 7 8 9 10a 10b 10c 11 12 13 14 15 16 17a 17b 18 19 20a 20b 20c 21
  MarseilleCannes | Dist: 199.00 km.

Average speed for all riders in stage:  29,788 km./hr.
    Place:Name:Team:Time:Km/h:
FRAJean FréchautFRAFrance06:35:26  +  00:00:00=30,195 
FRAYvan MarieFRACadets06:35:26  +  00:00:00=30,195 
FRAAndré LeducqFRACadets06:35:26  +  00:00:00=30,195 
4 ITAMario ViciniITAItaly06:35:26  +  00:00:00=30,195 
5 FRARobert TanneveauFRACadets06:35:26  +  00:00:00=30,195 
6 FRAJean FontenayFRACadets06:35:26  +  00:00:00=30,195 
7 ESPMariano CañardoESPSpain06:35:26  +  00:00:00=30,195 
8 FRAMathias ClemensLUXLuxembourg06:35:26  +  00:00:00=30,195 
9 ITADante GianelloFRABluets06:35:26  +  00:00:00=30,195 
10 FRAVictor CossonFRAFrance06:35:26  +  00:00:00=30,195 
11 FRAAlbert BourlonFRABluets06:35:26  +  00:00:00=30,195 
12 FRAAuguste MalletFRAFrance06:35:26  +  00:00:00=30,195 
13 ITAOreste BernardoniFRABluets06:38:48  +  00:03:22=29,940 
14 FRAPierre ClemensLUXLuxembourg06:38:48  +  00:03:22=29,940 
15 NLDTheo MiddelkampNLDHolland06:38:48  +  00:03:22=29,940 
16 ESPRafael RamosESPSpain06:38:48  +  00:03:22=29,940 
17 ESPJulián BerrenderoESPSpain06:38:48  +  00:03:22=29,940 
18 FRAGeorges NaisseFRAFrance06:38:48  +  00:03:22=29,940 
19 CHEPaul EgliCHESwitzerland06:39:41  +  00:04:15=29,874 
20 NLDAntoon Van SchendelNLDHolland06:39:41  +  00:04:15=29,874 
21 ESPJacques AlzineESPSpain06:39:41  +  00:04:15=29,874 
22 FRARaoul LesueurFRACadets06:40:06  +  00:04:40=29,843 
23 BELFrançois NeuvilleBELBelgium06:40:06  +  00:04:40=29,843 
24 FRAPierre GallienFRAFrance06:40:06  +  00:04:40=29,843 
25 CHERaymond LouviotFRACadets06:40:06  +  00:04:40=29,843 
26 ITAGino BartaliITAItaly06:40:06  +  00:04:40=29,843 
27 BELFélicien VervaeckeBELBelgium06:40:06  +  00:04:40=29,843 
28 ITAGiuseppe MartanoITAItaly06:40:06  +  00:04:40=29,843 
29 BELSylvère MaesBELBelgium06:40:06  +  00:04:40=29,843 
30 BELAlbertin DisseauxBELBelgium06:40:06  +  00:04:40=29,843 
31 BELConstant LauwersBELBelgium06:40:06  +  00:04:40=29,843 
32 BELJules LowieBELBelgium06:40:06  +  00:04:40=29,843 
33 FRAAntonin MagneFRAFrance06:40:06  +  00:04:40=29,843 
34 ITAVasco BergamaschiITAItaly06:40:06  +  00:04:40=29,843 
35 BELEdward VissersBELBelgium06:40:06  +  00:04:40=29,843 
36 CHEBruno CariniFRACadets06:40:06  +  00:04:40=29,843 
37 BELMarcel KintBELBelgium06:40:06  +  00:04:40=29,843 
38 FRAJean-Marie GoasmatFRAFrance06:40:06  +  00:04:40=29,843 
39 FRARaymond PassatFRACadets06:40:06  +  00:04:40=29,843 
40 FRAGaston GrimbertFRABluets06:40:06  +  00:04:40=29,843 
41 ITAGlauco ServadeiITAItaly06:40:06  +  00:04:40=29,843 
42 ITAGiordano CotturITAItaly06:40:06  +  00:04:40=29,843 
43 BELRene WalschotBELBelgium06:40:06  +  00:04:40=29,843 
44 BELEmile Masson jr.BELBelgium06:40:06  +  00:04:40=29,843 
45 FRAFabien GalateauFRACadets06:40:06  +  00:04:40=29,843 
46 FRARobert OubronFRACadets06:40:06  +  00:04:40=29,843 
47 LUXArsène MerschLUXLuxembourg06:40:35  +  00:05:09=29,807 
48 FRAPierre JaminetFRAFrance06:40:35  +  00:05:09=29,807 
49 DEUOtto WeckerlingDEUGermany06:40:35  +  00:05:09=29,807 
50 LUXJean MajerusLUXLuxembourg06:40:35  +  00:05:09=29,807 
51 FRALucien Le GuevelFRABluets06:40:35  +  00:05:09=29,807 
52 ITAPierre SpaperiFRABluets06:40:35  +  00:05:09=29,807 
53 FRAMarcel LaurentFRAFrance06:40:48  +  00:05:22=29,790 
54 FRAJoseph GoutorbeFRABluets06:42:23  +  00:06:57=29,673 
55 DEUHerbert HauswaldDEUGermany06:42:36  +  00:07:10=29,657 
56 DEUJosef ArentsDEUGermany06:42:36  +  00:07:10=29,657 
57 NLDJanus HellemonsNLDHolland06:42:36  +  00:07:10=29,657 
58 LUXFrançois NeuensLUXLuxembourg06:43:12  +  00:07:46=29,613 
59 CHEAlbert KnuttiCHESwitzerland06:43:12  +  00:07:46=29,613 
60 FRAJules RossiITAItaly06:46:15  +  00:10:49=29,391 
61 ITALuigi IntrozziITAItaly06:46:15  +  00:10:49=29,391 
62 CHEEdgar HehlenCHESwitzerland06:46:15  +  00:10:49=29,391 
63 FRACamille LeroyFRABluets06:47:40  +  00:12:14=29,289 
64 ITAAldo BiniITAItaly06:47:40  +  00:12:14=29,289 
65 ITAEnrico MolloITAItaly06:51:26  +  00:16:00=29,020 
66 DEUReinhold WendelDEUGermany07:05:00  +  00:29:34=28,094 
67 ITANello TroggiITAItaly07:05:00  +  00:29:34=28,094 

Withdrawls: 2
 
Rider
Team
Reason
5  BELÉloi MeulenbergBELBelgiumDid not finish
35  DEUKarl HeideDEUGermanyDisqualified

Todays birthdays.

1892  Alfred Steux
1899  Giovanni Grespan
1903  Jose Trueba
1914  Giordano Cottur
1920  Robert Castelin
1922  François Person
1931  John Kennedy
1931  Isaac Vitré
1940  Andre van Aert
1944  Jean-Claude Theilliere
1951  Roger Verschaeve
1955  Bernard Becaas
1967  Roberto Caruso
1969  Gianvito Martinelli
1974  Fabio Sacchi
1979  Giampaolo Cheula